Location: Rokycany
(49.7330°N, 13.6000°E)
Time: 18:22:44
(UTC+02:00)

Tiangong 2 - Visible Passes

Search period start: 19 May 2019 00:00
Search period end: 29 May 2019 00:00
Orbit: 378 x 387 km, 42.8° (Epoch: 19 May)

Date Brightness Start Highest point End Pass type
(mag) Time Alt. Az. Time Alt. Az. Time Alt. Az.
20 May 3.5 23:00:09 10° SW 23:00:26 11° SW 23:00:26 11° SW visible
21 May 2.7 22:00:36 10° SSW 22:02:46 17° SSE 22:03:51 15° SE visible
22 May 2.3 22:36:31 10° SW 22:39:03 22° S 22:39:07 22° S visible
23 May 2.6 21:36:47 10° SW 21:39:12 20° S 21:41:37 10° ESE visible
23 May 3.0 23:12:55 10° WSW 23:14:09 17° SW 23:14:09 17° SW visible
24 May 2.4 22:12:58 10° WSW 22:15:30 23° S 22:16:52 17° SE visible
25 May 2.8 22:49:33 10° WSW 22:51:39 18° SSW 22:51:39 18° SSW visible
26 May 2.6 21:49:28 10° WSW 21:51:54 21° S 21:54:12 11° SE visible
27 May 3.1 22:26:21 10° SW 22:28:06 14° SSW 22:28:54 13° S visible
